QPF
0.00 0.00 0.00 0.00 0.00 0.00 0.00 0.01 0.01 0.03 0.06 0.10 0.14 0.17 0.21 0.27 0.31 0.30 0.31 0.34 0.36 0.35 0.35 0.34 0.32 0.27 0.23 0.19 0.13 0.08 0.04 0.02 0.01 0.01 0.01 0.01 0.00 0.00 0.00 0.00 0.00 0.00 0.00
0.00 0.00 0.00 0.00 0.00 0.00 0.00 0.00 0.01 0.02 0.06 0.12 0.18 0.21 0.25 0.29 0.35 0.39 0.44 0.46 0.44 0.40 0.35 0.32 0.29 0.23 0.20 0.14 0.09 0.05 0.02 0.01 0.01 0.00 0.00 0.00 0.00 0.00 0.00 0.00 0.00 0.00 0.00
0.00 0.00 0.00 0.00 0.00 0.00 0.00 0.00 0.00 0.02 0.08 0.11 0.13 0.16 0.21 0.26 0.29 0.32 0.34 0.38 0.40 0.42 0.37 0.28 0.22 0.15 0.12 0.09 0.05 0.03 0.01 0.00 0.00 0.00 0.00 0.00 0.00 0.00 0.00 0.00 0.00 0.00 0.00
0.00 0.00 0.00 0.00 0.00 0.01 0.00 0.00 0.00 0.01 0.02 0.06 0.10 0.14 0.18 0.22 0.26 0.26 0.23 0.22 0.23 0.25 0.24 0.22 0.18 0.11 0.07 0.04 0.02 0.01 0.00 0.00 0.00 0.00 0.00 0.00 0.00 0.00 0.00 0.00 0.00 0.00 0.00
0.00 0.00 0.00 0.00 0.01 0.01 0.00 0.00 0.00 0.01 0.02 0.03 0.04 0.10 0.14 0.16 0.17 0.16 0.14 0.11 0.10 0.10 0.11 0.12 0.11 0.07 0.04 0.02 0.01 0.00 0.00 0.00 0.00 0.00 0.00 0.00 0.00 0.00 0.00 0.00 0.00 0.00 0.00
0.00 0.00 0.01 0.01 0.01 0.01 0.00 0.00 0.01 0.01 0.02 0.03 0.04 0.05 0.09 0.10 0.12 0.14 0.11 0.08 0.05 0.03 0.03 0.03 0.02 0.01 0.01 0.01 0.00 0.00 0.00 0.00 0.00 0.00 0.00 0.00 0.00 0.00 0.00 0.00 0.00 0.00 0.00
0.00 0.01 0.01 0.02 0.02 0.01 0.00 0.00 0.00 0.01 0.02 0.03 0.04 0.04 0.05 0.07 0.07 0.10 0.13 0.09 0.04 0.02 0.01 0.00 0.00 0.00 0.00 0.00 0.00 0.00 0.00 0.00 0.00 0.00 0.00 0.00 0.00 0.00 0.00 0.00 0.00 0.00 0.00
0.01 0.01 0.02 0.02 0.02 0.01 0.00 0.00 0.00 0.01 0.01 0.02 0.02 0.02 0.02 0.03 0.04 0.05 0.06 0.04 0.02 0.01 0.00 0.00 0.00 0.00 0.00 0.00 0.00 0.00 0.00 0.00 0.00 0.00 0.00 0.00 0.00 0.00 0.00 0.00 0.00 0.00 0.00
0.01 0.02 0.02 0.02 0.02 0.02 0.01 0.01 0.01 0.01 0.00 0.00 0.01 0.01 0.01 0.01 0.02 0.02 0.02 0.01 0.01 0.00 0.00 0.00 0.00 0.00 0.00 0.00 0.00 0.00 0.00 0.00 0.00 0.00 0.00 0.00 0.00 0.00 0.00 0.00 0.00 0.00 0.00
0.02 0.03 0.03 0.02 0.02 0.02 0.02 0.02 0.01 0.01 0.00 0.00 0.00 0.00 0.00 0.00 0.01 0.01 0.01 0.01 0.00 0.00 0.00 0.00 0.00 0.00 0.00 0.00 0.00 0.00 0.00 0.00 0.00 0.00 0.00 0.00 0.00 0.00 0.00 0.00 0.00 0.00 0.00
0.03 0.03 0.03 0.03 0.03 0.02 0.02 0.02 0.02 0.02 0.01 0.01 0.01 0.00 0.00 0.00 0.00 0.00 0.00 0.00 0.00 0.00 0.00 0.00 0.00 0.00 0.00 0.00 0.00 0.00 0.00 0.00 0.00 0.00 0.00 0.00 0.00 0.00 0.00 0.00 0.00 0.00 0.00
0.05 0.05 0.04 0.04 0.03 0.03 0.03 0.03 0.02 0.02 0.01 0.01 0.00 0.00 0.00 0.00 0.00 0.00 0.00 0.00 0.00 0.00 0.00 0.00 0.00 0.00 0.00 0.00 0.00 0.00 0.00 0.00 0.00 0.00 0.00 0.00 0.00 0.00 0.00 0.00 0.00 0.00 0.00
0.12 0.10 0.08 0.06 0.04 0.04 0.04 0.03 0.03 0.01 0.01 0.01 0.00 0.00 0.00 0.00 0.00 0.00 0.00 0.00 0.00 0.00 0.00 0.00 0.00 0.00 0.00 0.00 0.00 0.00 0.00 0.00 0.00 0.00 0.00 0.00 0.00 0.00 0.00 0.00 0.00 0.00 0.00
0.15 0.12 0.10 0.07 0.06 0.05 0.05 0.04 0.02 0.02 0.02 0.01 0.01 0.00 0.00 0.00 0.00 0.00 0.00 0.00 0.00 0.00 0.00 0.00 0.00 0.00 0.00 0.00 0.00 0.00 0.00 0.00 0.00 0.00 0.00 0.00 0.00 0.00 0.00 0.00 0.00 0.00 0.00
0.22 0.17 0.13 0.10 0.07 0.06 0.05 0.04 0.03 0.02 0.01 0.01 0.01 0.01 0.00 0.00 0.00 0.00 0.00 0.00 0.00 0.00 0.00 0.00 0.00 0.00 0.00 0.00 0.00 0.00 0.00 0.00 0.00 0.00 0.00 0.00 0.00 0.00 0.00 0.00 0.00 0.00 0.00
0.27 0.21 0.16 0.12 0.09 0.07 0.05 0.04 0.03 0.02 0.01 0.01 0.00 0.00 0.00 0.00 0.00 0.00 0.00 0.00 0.00 0.00 0.00 0.00 0.00 0.00 0.00 0.00 0.00 0.00 0.00 0.00 0.00 0.00 0.00 0.00 0.00 0.00 0.00 0.00 0.00 0.00 0.00
0.32 0.27 0.22 0.18 0.14 0.09 0.06 0.04 0.02 0.02 0.02 0.01 0.00 0.00 0.00 0.00 0.00 0.00 0.00 0.00 0.00 0.00 0.00 0.00 0.00 0.00 0.00 0.00 0.00 0.00 0.00 0.00 0.00 0.00 0.00 0.00 0.00 0.00 0.00 0.00 0.00 0.00 0.00
0.33 0.31 0.27 0.22 0.17 0.12 0.08 0.04 0.02 0.02 0.01 0.01 0.00 0.00 0.00 0.00 0.00 0.00 0.00 0.00 0.00 0.00 0.00 0.00 0.00 0.00 0.00 0.00 0.00 0.00 0.00 0.00 0.00 0.00 0.00 0.00 0.00 0.00 0.00 0.00 0.00 0.00 0.00
0.33 0.34 0.31 0.24 0.18 0.13 0.10 0.06 0.04 0.02 0.01 0.01 0.00 0.00 0.00 0.00 0.00 0.00 0.00 0.00 0.00 0.00 0.00 0.00 0.00 0.00 0.00 0.00 0.00 0.00 0.00 0.00 0.00 0.00 0.00 0.00 0.00 0.00 0.00 0.00 0.00 0.00 0.00
0.34 0.34 0.33 0.27 0.20 0.15 0.12 0.08 0.05 0.03 0.02 0.01 0.00 0.00 0.00 0.00 0.00 0.00 0.00 0.00 0.00 0.00 0.00 0.00 0.00 0.00 0.00 0.00 0.00 0.00 0.00 0.00 0.00 0.00 0.00 0.00 0.00 0.00 0.00 0.00 0.00 0.00 0.00
0.34 0.34 0.32 0.27 0.21 0.16 0.12 0.08 0.06 0.04 0.02 0.01 0.00 0.00 0.00 0.00 0.00 0.00 0.00 0.00 0.00 0.00 0.00 0.00 0.00 0.00 0.00 0.00 0.00 0.00 0.00 0.00 0.00 0.00 0.00 0.00 0.00 0.00 0.00 0.00 0.00 0.00 0.00
0.33 0.35 0.31 0.26 0.21 0.17 0.13 0.09 0.07 0.05 0.02 0.02 0.01 0.00 0.00 0.00 0.00 0.00 0.00 0.00 0.00 0.00 0.00 0.00 0.00 0.00 0.00 0.00 0.00 0.00 0.00 0.00 0.00 0.00 0.00 0.00 0.00 0.00 0.00 0.00 0.00 0.00 0.00
0.31 0.36 0.33 0.26 0.19 0.15 0.12 0.09 0.07 0.05 0.03 0.02 0.01 0.01 0.00 0.00 0.00 0.00 0.00 0.00 0.00 0.00 0.00 0.00 0.00 0.00 0.00 0.00 0.00 0.00 0.00 0.00 0.00 0.00 0.00 0.00 0.00 0.00 0.00 0.00 0.00 0.00 0.00
0.26 0.31 0.32 0.28 0.20 0.14 0.10 0.07 0.06 0.05 0.03 0.02 0.01 0.01 0.00 0.00 0.00 0.00 0.00 0.00 0.00 0.00 0.00 0.00 0.00 0.00 0.00 0.00 0.00 0.00 0.00 0.00 0.00 0.00 0.00 0.00 0.00 0.00 0.00 0.00 0.00 0.00 0.00
0.23 0.26 0.29 0.28 0.21 0.14 0.09 0.06 0.05 0.04 0.02 0.01 0.01 0.00 0.00 0.00 0.00 0.00 0.00 0.00 0.00 0.00 0.00 0.00 0.00 0.00 0.00 0.00 0.00 0.00 0.00 0.00 0.00 0.00 0.00 0.00 0.00 0.00 0.00 0.00 0.00 0.00 0.00
0.21 0.22 0.24 0.24 0.20 0.14 0.09 0.06 0.04 0.03 0.01 0.01 0.01 0.00 0.00 0.00 0.00 0.00 0.00 0.00 0.00 0.00 0.00 0.00 0.00 0.00 0.00 0.00 0.00 0.00 0.00 0.00 0.00 0.00 0.00 0.00 0.00 0.00 0.00 0.00 0.00 0.00 0.00
MSLP
1009.99 1010.19 1010.40 1010.55 1010.61 1010.53 1010.31 1009.94 1009.44 1008.82 1008.14 1007.43 1006.74 1006.09 1005.52 1005.06 1004.72 1004.52 1004.46 1004.54 1004.76 1005.09 1005.53 1006.03 1006.58 1007.14 1007.70 1008.24 1008.74 1009.20 1009.62 1009.99 1010.31 1010.56 1010.76 1010.87 1010.90 1010.85 1010.72 1010.53 1010.30 1010.06 1009.85
1009.63 1009.85 1010.08 1010.28 1010.40 1010.40 1010.26 1009.97 1009.54 1009.00 1008.37 1007.71 1007.05 1006.43 1005.89 1005.45 1005.13 1004.95 1004.90 1004.99 1005.19 1005.50 1005.88 1006.32 1006.79 1007.29 1007.78 1008.28 1008.77 1009.24 1009.70 1010.14 1010.53 1010.88 1011.15 1011.33 1011.40 1011.37 1011.23 1011.01 1010.72 1010.41 1010.12
1009.14 1009.36 1009.61 1009.86 1010.05 1010.13 1010.09 1009.90 1009.58 1009.14 1008.61 1008.03 1007.45 1006.90 1006.42 1006.04 1005.77 1005.62 1005.60 1005.69 1005.89 1006.16 1006.50 1006.87 1007.27 1007.69 1008.11 1008.55 1009.00 1009.45 1009.92 1010.38 1010.82 1011.22 1011.55 1011.79 1011.91 1011.90 1011.77 1011.53 1011.22 1010.86 1010.50
1008.54 1008.75 1009.02 1009.30 1009.55 1009.72 1009.79 1009.73 1009.54 1009.23 1008.83 1008.37 1007.90 1007.45 1007.05 1006.74 1006.53 1006.43 1006.44 1006.55 1006.74 1006.99 1007.29 1007.60 1007.94 1008.28 1008.63 1008.99 1009.38 1009.79 1010.23 1010.69 1011.14 1011.56 1011.92 1012.19 1012.35 1012.37 1012.26 1012.03 1011.71 1011.33 1010.93
1007.92 1008.09 1008.35 1008.65 1008.95 1009.21 1009.38 1009.45 1009.41 1009.25 1009.00 1008.69 1008.35 1008.01 1007.71 1007.48 1007.33 1007.28 1007.31 1007.44 1007.63 1007.86 1008.12 1008.40 1008.68 1008.95 1009.23 1009.53 1009.85 1010.20 1010.59 1011.00 1011.43 1011.84 1012.20 1012.49 1012.66 1012.72 1012.64 1012.44 1012.13 1011.75 1011.34
1007.32 1007.44 1007.66 1007.96 1008.30 1008.62 1008.89 1009.09 1009.19 1009.19 1009.10 1008.95 1008.74 1008.52 1008.32 1008.16 1008.07 1008.06 1008.12 1008.25 1008.44 1008.66 1008.90 1009.15 1009.39 1009.62 1009.84 1010.08 1010.33 1010.61 1010.93 1011.28 1011.65 1012.02 1012.36 1012.63 1012.82 1012.89 1012.85 1012.69 1012.43 1012.08 1011.69
1006.82 1006.85 1007.02 1007.29 1007.62 1007.99 1008.34 1008.65 1008.88 1009.03 1009.10 1009.09 1009.02 1008.92 1008.82 1008.73 1008.69 1008.70 1008.78 1008.92 1009.10 1009.32 1009.55 1009.78 1010.00 1010.20 1010.39 1010.57 1010.77 1010.98 1011.23 1011.50 1011.80 1012.10 1012.39 1012.64 1012.82 1012.91 1012.90 1012.79 1012.59 1012.30 1011.96
1006.42 1006.36 1006.44 1006.65 1006.96 1007.33 1007.73 1008.12 1008.47 1008.76 1008.97 1009.10 1009.16 1009.17 1009.15 1009.13 1009.13 1009.17 1009.25 1009.40 1009.58 1009.80 1010.03 1010.25 1010.47 1010.66 1010.83 1010.99 1011.14 1011.30 1011.47 1011.67 1011.88 1012.11 1012.34 1012.55 1012.72 1012.82 1012.85 1012.79 1012.65 1012.43 1012.16
1006.13 1005.95 1005.92 1006.05 1006.30 1006.66 1007.08 1007.52 1007.96 1008.35 1008.68 1008.94 1009.12 1009.23 1009.30 1009.34 1009.38 1009.45 1009.55 1009.70 1009.89 1010.11 1010.35 1010.59 1010.81 1011.01 1011.19 1011.33 1011.46 1011.57 1011.69 1011.82 1011.97 1012.13 1012.30 1012.47 1012.61 1012.72 1012.77 1012.76 1012.68 1012.54 1012.33
1005.88 1005.58 1005.45 1005.47 1005.65 1005.96 1006.37 1006.84 1007.33 1007.81 1008.24 1008.61 1008.90 1009.11 1009.27 1009.38 1009.47 1009.58 1009.70 1009.86 1010.06 1010.30 1010.55 1010.81 1011.06 1011.29 1011.48 1011.63 1011.75 1011.85 1011.94 1012.02 1012.12 1012.22 1012.34 1012.47 1012.59 1012.69 1012.77 1012.79 1012.76 1012.67 1012.52
1005.62 1005.22 1004.98 1004.90 1004.99 1005.24 1005.62 1006.09 1006.62 1007.16 1007.67 1008.14 1008.53 1008.84 1009.08 1009.27 1009.43 1009.58 1009.74 1009.93 1010.16 1010.41 1010.69 1010.98 1011.26 1011.51 1011.74 1011.91 1012.05 1012.15 1012.23 1012.30 1012.36 1012.44 1012.52 1012.62 1012.72 1012.81 1012.89 1012.93 1012.93 1012.88 1012.75
1005.30 1004.82 1004.48 1004.31 1004.32 1004.50 1004.84 1005.30 1005.84 1006.42 1007.00 1007.55 1008.03 1008.45 1008.78 1009.06 1009.30 1009.51 1009.72 1009.95 1010.20 1010.49 1010.80 1011.11 1011.43 1011.72 1011.98 1012.19 1012.36 1012.49 1012.58 1012.66 1012.72 1012.78 1012.85 1012.92 1013.01 1013.09 1013.16 1013.20 1013.21 1013.16 1013.05
1004.90 1004.36 1003.95 1003.71 1003.65 1003.78 1004.07 1004.51 1005.05 1005.66 1006.29 1006.91 1007.47 1007.98 1008.41 1008.78 1009.10 1009.38 1009.65 1009.93 1010.22 1010.54 1010.87 1011.22 1011.56 1011.89 1012.19 1012.44 1012.66 1012.82 1012.95 1013.05 1013.13 1013.20 1013.27 1013.34 1013.41 1013.48 1013.54 1013.56 1013.55 1013.49 1013.37
1004.42 1003.85 1003.41 1003.12 1003.01 1003.09 1003.35 1003.76 1004.30 1004.92 1005.58 1006.25 1006.89 1007.47 1007.99 1008.45 1008.85 1009.21 1009.55 1009.88 1010.21 1010.55 1010.91 1011.28 1011.64 1012.00 1012.33 1012.63 1012.88 1013.10 1013.27 1013.42 1013.53 1013.63 1013.71 1013.79 1013.86 1013.91 1013.94 1013.95 1013.91 1013.83 1013.68
1003.89 1003.32 1002.87 1002.57 1002.43 1002.48 1002.71 1003.10 1003.62 1004.24 1004.92 1005.62 1006.31 1006.96 1007.56 1008.10 1008.58 1009.01 1009.40 1009.77 1010.13 1010.50 1010.87 1011.25 1011.62 1011.99 1012.35 1012.68 1012.98 1013.24 1013.47 1013.66 1013.83 1013.96 1014.07 1014.17 1014.24 1014.28 1014.30 1014.28 1014.22 1014.11 1013.94
1003.34 1002.81 1002.38 1002.08 1001.94 1001.98 1002.18 1002.54 1003.03 1003.64 1004.32 1005.03 1005.76 1006.46 1007.11 1007.71 1008.26 1008.74 1009.19 1009.59 1009.98 1010.35 1010.72 1011.10 1011.47 1011.84 1012.21 1012.56 1012.89 1013.20 1013.47 1013.72 1013.93 1014.12 1014.26 1014.38 1014.47 1014.52 1014.53 1014.50 1014.43 1014.31 1014.13
1002.82 1002.33 1001.94 1001.66 1001.53 1001.55 1001.73 1002.06 1002.53 1003.10 1003.76 1004.48 1005.21 1005.94 1006.63 1007.28 1007.87 1008.41 1008.89 1009.32 1009.72 1010.09 1010.45 1010.81 1011.17 1011.53 1011.89 1012.25 1012.60 1012.94 1013.26 1013.55 1013.82 1014.05 1014.24 1014.39 1014.50 1014.57 1014.60 1014.58 1014.52 1014.40 1014.24
1002.32 1001.89 1001.54 1001.30 1001.17 1001.18 1001.33 1001.62 1002.05 1002.59 1003.22 1003.91 1004.64 1005.38 1006.11 1006.79 1007.42 1007.99 1008.49 1008.94 1009.35 1009.72 1010.06 1010.39 1010.73 1011.06 1011.41 1011.77 1012.13 1012.49 1012.84 1013.17 1013.48 1013.75 1013.99 1014.18 1014.33 1014.44 1014.50 1014.51 1014.48 1014.40 1014.28
1001.85 1001.47 1001.16 1000.93 1000.81 1000.80 1000.92 1001.17 1001.54 1002.04 1002.63 1003.30 1004.03 1004.77 1005.51 1006.22 1006.88 1007.48 1008.01 1008.47 1008.88 1009.24 1009.57 1009.87 1010.18 1010.49 1010.81 1011.15 1011.51 1011.88 1012.25 1012.61 1012.95 1013.27 1013.55 1013.79 1013.99 1014.14 1014.25 1014.32 1014.34 1014.33 1014.27
1001.37 1001.04 1000.75 1000.53 1000.39 1000.36 1000.44 1000.64 1000.97 1001.41 1001.97 1002.62 1003.33 1004.08 1004.84 1005.57 1006.26 1006.89 1007.45 1007.93 1008.34 1008.69 1009.00 1009.28 1009.55 1009.83 1010.13 1010.45 1010.79 1011.16 1011.54 1011.92 1012.29 1012.64 1012.97 1013.26 1013.51 1013.72 1013.90 1014.03 1014.13 1014.19 1014.22
1000.86 1000.55 1000.27 1000.04 999.88 999.81 999.85 1000.00 1000.28 1000.69 1001.22 1001.85 1002.56 1003.32 1004.10 1004.86 1005.58 1006.24 1006.82 1007.32 1007.74 1008.08 1008.38 1008.64 1008.89 1009.14 1009.40 1009.70 1010.02 1010.38 1010.76 1011.15 1011.54 1011.92 1012.28 1012.62 1012.93 1013.21 1013.45 1013.67 1013.85 1014.00 1014.12
1000.29 999.98 999.70 999.45 999.26 999.15 999.14 999.25 999.50 999.88 1000.39 1001.01 1001.73 1002.50 1003.31 1004.10 1004.85 1005.54 1006.15 1006.67 1007.09 1007.44 1007.73 1007.97 1008.19 1008.41 1008.65 1008.92 1009.22 1009.56 1009.93 1010.32 1010.72 1011.13 1011.53 1011.91 1012.27 1012.61 1012.93 1013.22 1013.49 1013.73 1013.94
999.65 999.33 999.03 998.75 998.53 998.38 998.34 998.42 998.65 999.01 999.52 1000.15 1000.88 1001.67 1002.50 1003.32 1004.10 1004.81 1005.44 1005.97 1006.41 1006.75 1007.03 1007.26 1007.46 1007.66 1007.87 1008.11 1008.39 1008.71 1009.07 1009.45 1009.86 1010.28 1010.70 1011.12 1011.53 1011.93 1012.32 1012.69 1013.04 1013.36 1013.66
998.93 998.60 998.28 997.98 997.73 997.57 997.51 997.58 997.79 998.16 998.67 999.30 1000.05 1000.86 1001.71 1002.54 1003.34 1004.06 1004.70 1005.23 1005.66 1006.00 1006.27 1006.48 1006.67 1006.85 1007.04 1007.26 1007.52 1007.82 1008.16 1008.54 1008.95 1009.38 1009.82 1010.27 1010.72 1011.17 1011.62 1012.05 1012.47 1012.87 1013.24
998.15 997.82 997.49 997.18 996.92 996.75 996.69 996.77 996.99 997.36 997.88 998.53 999.29 1000.11 1000.95 1001.78 1002.57 1003.29 1003.91 1004.43 1004.85 1005.18 1005.43 1005.63 1005.80 1005.97 1006.15 1006.35 1006.60 1006.89 1007.22 1007.60 1008.00 1008.44 1008.89 1009.37 1009.85 1010.34 1010.83 1011.32 1011.81 1012.27 1012.70
997.32 997.00 996.68 996.39 996.15 995.99 995.95 996.05 996.29 996.68 997.21 997.86 998.61 999.41 1000.23 1001.04 1001.80 1002.48 1003.07 1003.56 1003.95 1004.26 1004.50 1004.69 1004.85 1005.02 1005.20 1005.40 1005.65 1005.94 1006.27 1006.65 1007.05 1007.49 1007.96 1008.45 1008.95 1009.47 1010.01 1010.54 1011.07 1011.59 1012.08
Thickness
5689 5683 5679 5674 5671 5668 5666 5664 5664 5664 5666 5668 5670 5672 5674 5676 5676 5676 5675 5675 5676 5677 5677 5675 5674 5675 5673 5673 5673 5672 5670 5670 5663 5661 5663 5666 5668 5669 5672 5674 5676 5677 5678
5684 5678 5672 5667 5663 5659 5657 5655 5654 5654 5655 5656 5658 5659 5662 5663 5664 5664 5663 5663 5663 5663 5664 5664 5662 5662 5661 5662 5662 5661 5661 5661 5658 5652 5652 5654 5657 5659 5662 5664 5666 5668 5669
5678 5672 5666 5660 5656 5652 5649 5646 5645 5644 5644 5645 5646 5647 5649 5650 5651 5651 5651 5650 5651 5649 5650 5649 5649 5650 5649 5650 5650 5651 5652 5652 5650 5645 5642 5643 5646 5649 5651 5653 5656 5657 5660
5673 5666 5659 5655 5650 5646 5642 5639 5637 5635 5635 5635 5635 5636 5637 5637 5638 5638 5638 5638 5638 5638 5636 5636 5637 5638 5638 5639 5640 5641 5642 5640 5638 5636 5634 5634 5635 5638 5639 5639 5641 5644 5647
5667 5661 5655 5650 5645 5640 5636 5632 5630 5628 5627 5626 5626 5627 5627 5628 5628 5628 5627 5626 5626 5625 5625 5625 5626 5627 5629 5631 5631 5631 5633 5631 5628 5626 5624 5624 5624 5626 5626 5627 5629 5631 5634
5663 5657 5652 5646 5640 5635 5630 5627 5624 5621 5619 5618 5617 5617 5618 5619 5619 5619 5618 5616 5615 5615 5614 5615 5618 5618 5620 5621 5622 5624 5626 5623 5620 5618 5616 5616 5616 5617 5618 5619 5618 5619 5619
5659 5654 5648 5642 5636 5631 5627 5622 5618 5615 5613 5611 5609 5608 5608 5608 5609 5610 5610 5608 5606 5606 5607 5608 5609 5608 5610 5612 5613 5615 5615 5616 5616 5614 5612 5611 5611 5610 5611 5611 5610 5609 5609
5653 5649 5644 5639 5634 5628 5623 5618 5614 5611 5608 5606 5604 5602 5601 5601 5602 5602 5602 5600 5598 5598 5598 5598 5598 5599 5603 5604 5605 5605 5606 5607 5608 5609 5608 5607 5606 5605 5605 5604 5602 5601 5601
5647 5645 5641 5636 5631 5626 5620 5615 5612 5608 5605 5603 5601 5598 5595 5595 5596 5596 5595 5593 5591 5590 5590 5591 5593 5593 5596 5598 5598 5597 5598 5599 5602 5603 5604 5603 5603 5602 5600 5597 5593 5589 5586
5638 5639 5638 5634 5629 5624 5619 5614 5610 5606 5603 5600 5597 5595 5592 5591 5591 5592 5591 5588 5585 5583 5583 5585 5587 5588 5590 5592 5591 5591 5590 5591 5594 5596 5596 5596 5594 5593 5592 5589 5584 5579 5575
5627 5630 5631 5629 5626 5622 5618 5613 5609 5605 5600 5597 5594 5592 5589 5588 5588 5589 5588 5586 5583 5581 5580 5580 5581 5584 5585 5587 5587 5587 5587 5587 5587 5587 5586 5585 5584 5583 5582 5580 5577 5573 5568
5614 5620 5623 5623 5622 5620 5614 5610 5607 5603 5598 5594 5591 5588 5586 5585 5585 5586 5586 5585 5584 5582 5580 5579 5579 5581 5582 5583 5583 5584 5584 5583 5581 5579 5577 5574 5573 5572 5572 5571 5569 5566 5562
5599 5606 5613 5615 5616 5615 5611 5607 5603 5600 5597 5593 5590 5587 5584 5583 5582 5583 5584 5584 5584 5582 5581 5580 5579 5579 5579 5579 5580 5580 5579 5577 5574 5571 5568 5566 5565 5565 5564 5563 5561 5558 5555
5583 5593 5601 5605 5608 5608 5607 5604 5602 5599 5596 5593 5590 5587 5584 5581 5579 5579 5580 5581 5581 5580 5578 5577 5577 5576 5575 5575 5575 5574 5573 5570 5568 5564 5562 5560 5560 5558 5555 5552 5549 5546 5542
5567 5578 5588 5595 5599 5601 5601 5602 5601 5601 5600 5596 5593 5591 5586 5582 5583 5582 5580 5578 5578 5577 5574 5571 5570 5569 5569 5569 5568 5568 5566 5564 5561 5559 5557 5555 5553 5551 5547 5544 5540 5537 5532
5552 5564 5576 5584 5590 5594 5595 5595 5596 5598 5597 5596 5595 5592 5590 5589 5586 5581 5580 5579 5577 5575 5572 5568 5567 5566 5566 5565 5564 5562 5561 5559 5557 5555 5552 5549 5546 5544 5540 5537 5534 5529 5525
5538 5550 5562 5574 5581 5587 5590 5591 5589 5588 5590 5590 5590 5589 5590 5587 5583 5580 5578 5576 5574 5572 5569 5567 5566 5565 5564 5562 5561 5559 5557 5555 5553 5551 5548 5545 5542 5539 5535 5531 5528 5524 5520
5530 5542 5553 5565 5574 5582 5586 5588 5589 5588 5586 5584 5584 5584 5585 5584 5581 5578 5575 5571 5567 5567 5567 5566 5565 5564 5563 5561 5560 5557 5555 5552 5549 5547 5544 5541 5538 5534 5531 5527 5522 5519 5514
5524 5535 5546 5558 5568 5576 5582 5585 5587 5587 5587 5583 5578 5578 5578 5577 5576 5574 5571 5572 5569 5566 5565 5565 5565 5563 5563 5561 5559 5557 5554 5551 5548 5544 5541 5538 5534 5531 5527 5523 5519 5516 5510
5519 5532 5542 5552 5562 5571 5578 5582 5584 5585 5585 5583 5581 5577 5573 5570 5568 5566 5567 5570 5570 5568 5567 5565 5564 5563 5562 5560 5558 5555 5552 5548 5545 5542 5538 5535 5532 5528 5524 5520 5515 5510 5505
5517 5527 5539 5549 5558 5567 5575 5580 5583 5584 5584 5584 5583 5580 5576 5577 5575 5572 5569 5569 5570 5569 5567 5566 5564 5563 5561 5559 5556 5554 5551 5547 5544 5540 5537 5533 5529 5526 5521 5517 5512 5507 5502
5516 5525 5536 5546 5556 5564 5572 5578 5581 5583 5584 5583 5581 5577 5571 5577 5576 5573 5571 5571 5570 5570 5569 5567 5565 5563 5561 5559 5556 5553 5549 5546 5543 5539 5536 5532 5528 5524 5519 5514 5509 5504 5498
5515 5524 5534 5544 5554 5562 5570 5576 5580 5583 5584 5584 5581 5577 5571 5573 5574 5573 5573 5571 5570 5568 5568 5566 5564 5562 5561 5559 5557 5554 5550 5547 5545 5541 5536 5531 5526 5521 5517 5512 5507 5501 5495
5514 5523 5533 5543 5552 5562 5569 5576 5580 5583 5584 5584 5582 5579 5576 5574 5575 5574 5573 5572 5570 5568 5567 5565 5564 5563 5561 5558 5556 5553 5552 5550 5546 5542 5538 5532 5526 5521 5515 5509 5504 5499 5492
5513 5522 5532 5542 5552 5562 5569 5576 5580 5584 5585 5585 5584 5581 5578 5576 5576 5575 5573 5572 5570 5568 5567 5565 5564 5562 5561 5558 5556 5553 5551 5549 5546 5542 5537 5532 5526 5520 5514 5508 5501 5494 5488
5513 5523 5533 5543 5553 5562 5569 5575 5580 5584 5586 5586 5585 5583 5581 5578 5577 5576 5574 5572 5570 5569 5567 5566 5564 5563 5561 5559 5557 5555 5551 5548 5545 5541 5537 5531 5525 5518 5512 5505 5498 5491 5484